Regional Weather Roundup
Issued by NWS

Home | Current Version | Previous Version | Graphics & Text | Print | Product List | Glossary On
Versions: 1 2 3 4 5 6 7 8 9 10 11 12 13 14 15 16 17 18 19 20 21 22 23 24 25 26 27 28 29 30 31 32 33 34 35 36 37 38 39 40 41 42 43 44 45 46 47 48 49 50
000
ASUS43 KMKX 240411
RWRWI

WISCONSIN REGIONAL WEATHER ROUNDUP
NATIONAL WEATHER SERVICE MILWAUKEE/SULLIVAN WI
1100 PM CDT SUN JUL 23 2017

NOTE: "FAIR" INDICATES FEW OR NO CLOUDS BELOW 12,000 FEET WITH NO
SIGNIFICANT WEATHER AND/OR OBSTRUCTIONS TO VISIBILITY.

WIZ001-002-006>008-014>016-023>028-240500-
NORTHWEST WISCONSIN

CITY           SKY/WX    TMP DP  RH WIND       PRES   REMARKS
SUPERIOR ARPT  NOT AVBL
ASHLAND        FOG       48  48 100 CALM      30.05R VSB 1/4
HAYWARD        CLOUDY    59  55  87 NE3       30.04S
SIREN          MOCLDY    61  57  87 E3        30.04R
CUMBERLAND     CLOUDY    61  54  77 NE3       30.03S
RICE LAKE      CLOUDY    63  56  78 N7        30.04S
CHETEK         CLEAR     63  57  81 N7        30.02S
LADYSMITH      MOCLDY    60  57  91 N6        30.04R
EAU CLAIRE     CLOUDY    64  57  78 N6        29.99R
MENOMONIE      PTCLDY    63  58  83 N7        30.01S
NEW RICHMOND   CLEAR     60  55  84 NE3       30.03R
OSCEOLA        CLEAR     59  59 100 NE3       30.05R
$$

WIZ003>005-009-010-017-018-240500-
NORTH CENTRAL WISCONSIN

CITY           SKY/WX    TMP DP  RH WIND       PRES   REMARKS
MANITOWISH WTR FOG       51  51 100 CALM      30.03S VSB 1/2
ARBOR VITAE    CLEAR     52  50  94 N3        30.02S FOG
WOODRUFF       CLEAR     52  50  94 N3        30.02S FOG
RHINELANDER    CLEAR     55  55 100 CALM      30.02S
EAGLE RIVER    MOCLDY    53  53 100 CALM      30.02F
LAND O LAKES   CLEAR     51  51  99 CALM      30.05S FOG
PHILLIPS       PTCLDY    58  56  92 NE3       30.02S
TOMAHAWK         N/A     56  52  88 CALM      30.02S
MEDFORD        CLOUDY    60  54  79 NE6       30.01S
MERRILL        NOT AVBL
$$

WIZ029-030-035-036-043>047-240500-
CENTRAL WISCONSIN

CITY           SKY/WX    TMP DP  RH WIND       PRES   REMARKS
WAUSAU         CLEAR     62  55  77 N5        29.98R
MOSINEE        PTCLDY    61  55  82 NE5       30.00R
MARSHFIELD     CLEAR     62  53  72 NE8       29.98R
STEVENS POINT  CLEAR     60  54  79 NE10      29.98R
WAUPACA        CLEAR     64  56  74 N7        29.96R
WAUTOMA        CLEAR     64  56  75 NE8       29.96R
WISC RAPIDS    CLEAR     65  56  72 NE8       29.98R
CAMP DOUGLAS   CLEAR     62  59  88 CALM      29.96R
$$

WIZ011>013-019>022-031-037>040-048>050-240500-
NORTHEAST WISCONSIN

CITY           SKY/WX    TMP DP  RH WIND       PRES   REMARKS
ANTIGO         CLEAR     55  53  94 N6        30.00S
SHAWANO        MOCLDY    64  56  77 N8        29.97R
OCONTO         CLOUDY    62  55  78 N8G16     29.94S
STURGEON BAY     N/A     63  58  83 N16       29.94R
GREEN BAY      CLOUDY    63  58  83 N10       29.94R
MANITOWOC      CLOUDY    64  58  80 N7        29.93R
APPLETON       MOCLDY    63  52  67 N14       29.94R
CLINTONVILLE   MOCLDY    61  54  77 N7        29.97R
OSHKOSH        CLOUDY    65  56  72 N17       29.93S
$$

WIZ032>034-041-042-053>061-240500-
SOUTHWEST WISCONSIN

CITY           SKY/WX    TMP DP  RH WIND       PRES   REMARKS
LA CROSSE      CLEAR     68  61  78 N9        29.96R
SPARTA         CLEAR     62  58  84 CALM      29.97R
VIROQUA        CLEAR     63  62  95 CALM      29.97R
BOSCOBEL       CLEAR     67  61  81 CALM      29.94R
PRAIRIE DU CHI CLEAR     68  59  73 NW5       29.93S
PLATTEVILLE    CLEAR     66  65  94 N5        29.93S
$$

WIZ056-057-062-063-064-067-068-240500-
SOUTH CENTRAL WISCONSIN

CITY           SKY/WX    TMP DP  RH WIND       PRES   REMARKS
REEDSBURG      CLOUDY    67  61  80 N8        29.93R
BARABOO/DELLS  MOCLDY    67  59  75 N5        29.94R
LONE ROCK      CLEAR     69  60  73 N9        29.92R
MINERAL POINT  CLEAR     68  63  83 NW6       29.93R
MADISON        PTCLDY    69  64  84 NE13      29.90R
MIDDLETON      MOCLDY    70  62  77 N6        29.92R
WATERTOWN      CLOUDY    67  64  91 NE8       29.90R
MONROE         PTCLDY    68  61  77 NW6       29.90S
JANESVILLE     CLEAR     68  64  88 N5        29.88R
$$

WIZ051-052-058>065-066-070>072-240500-
SOUTHEAST WISCONSIN

CITY           SKY/WX    TMP DP  RH WIND       PRES   REMARKS
MILWAUKEE      CLOUDY    68  63  84 NE17G24   29.90R
WAUKESHA       CLOUDY    64  61  88 NE6       29.92R
MILWAUKEE/TIMM CLOUDY    66  59  77 NE9G17    29.91R
RACINE         CLOUDY    68  64  87 N15G21    29.91R
KENOSHA        CLOUDY    68  62  81 NE12      29.90R
FOND DU LAC    CLOUDY    66  56  70 NE18      29.93S
SHEBOYGAN      CLOUDY    64  59  83 N8        29.92R
WEST BEND      CLOUDY    63  59  88 N12G21    29.91S
JUNEAU         PTCLDY    64  59  82 N10G16    29.93R
$$

LSZ147-162-240500-
LAKE SUPERIOR

STATION/POSITION TIME  TEMP    WIND        PRES    WAVE
                       AIR SEA DIR/SP/G            HT/PER
                 (UTC) (F)     (DEG/KT/KT) (MB)    (FT/S)
W MID LAKE BUOY  0350   50 48  300/  6/  6 1017.1R   1/ 4
DEVILS ISLAND    0400   56     290/  3/  3 1017.3F
SAXON HARBOR     0340   58     180/  3/  4 1016.9R
$$

LMZ867-665-643>646-240500-
LAKE MICHIGAN

STATION/POSITION TIME  TEMP    WIND        PRES    WAVE
                       AIR SEA DIR/SP/G            HT/PER
                 (UTC) (F)     (DEG/KT/KT) (MB)    (FT/S)
CHAMBERS ISLAND  0340   64     350/ 18/ 22 1013.2S
S GREEN BAY BUOY 0400   65 72   10/ 19/ 23 1013.5
N MID LAKE BUOY  0350   62 66   50/ 19/ 23 1013.6R   4/ 5
NORTHPORT PIER   0340   63      30/ 15/ 17 1013.9S
KEWAUNEE LAKESHO 0348   64     350/  5/ 11 1012.5R
SHEBOYGAN LAKESH 0400   65      10/ 21/ 23 1012.5R
PORT WASHINGTON  0330   67      20/  7/ 11 1013.2R
ATWATER BUOY     0309   68 69   20/ 19/ 25 1012.1R
MILWAUKEE LAKESH 0350   67      20/ 21/ 23   N/A
S MID LAKE BUOY  0350   68 70   10/ 21/ 27 1010.7R   3/ 4
KENOSHA   LAKESH 0400   69      10/ 19/ 24 1011.9
$$

TC  - TEMPERATURE IN CELSIUS
VSB - VISIBILITY IN STATUTE MILES
WCI - WIND CHILL INDEX
HX  - HEAT INDEX





USA.gov is the U.S. government's official web portal to all federal, state and local government web resources and services.